Weather History for KFNT - December, 2011

Change the Weather History Date:

Sunday, December 18, 2011

  Actual Average Record
Temperature  
Mean Temperature 34 °F 26 °F  
Max Temperature 38 °F 33 °F 54 °F (1939)
Min Temperature 30 °F 20 °F -7 °F (1926)
Degree Days  
Heating Degree Days 31 38  
Month to date heating degree days 565 641  
Since 1 July heating degree days 1774 2122  
Cooling Degree Days 0 0  
Month to date cooling degree days 0 0  
Year to date cooling degree days 819 531  
Moisture  
Dew Point 26 °F    
Average Humidity 75    
Maximum Humidity 85    
Minimum Humidity 64    
Precipitation  
Precipitation T in 0.05 in 0.47 in (1977)
Month to date precipitation 1.19 1.16  
Year to date precipitation 40.07 30.61  
Snow  
Snow 0.10 in 0.40 in 3.60 in (1951)
Month to date snowfall 2.6 6.4  
Since 1 July snowfall 6.3 9.3  
Snow Depth T in    
Sea Level Pressure  
Sea Level Pressure 30.12 in    
Wind  
Wind Speed 9 mph (SW)    
Max Wind Speed 17 mph    
Max Gust Speed 26 mph    
Visibility 8 miles    
Events Rain , Snow    
T = Trace of Precipitation, MM = Missing Value Source: NWS Daily Summary

Daily Weather History Graph

Daily Weather History Graph

Search for Another Location

Airport or City:

Trip Planner

Search our weather history database for the weather conditions in past years. The results will help you decide how hot, cold, wet, or windy it might be!

Date:

Astronomy

Dec. 18, 2011 Rise Set
Actual Time 8:01 AM EST 5:01 PM EST
Civil Twilight 7:28 AM EST 5:34 PM EST
Nautical Twilight 6:52 AM EST 6:10 PM EST
Astronomical Twilight 6:18 AM EST 6:44 PM EST
Moon 12:53 AM EST (12/18) 12:33 PM EST (12/18)
Length of Visible Light 10h 05m
Length of Day
9h 00m
Last Quarter, 42% of the Moon is Illuminated
Dec 18
Last Quarter
Dec 24
New
Jan 1
First Quarter
Jan 9
Full
Jan 16
Last Quarter

Hourly Weather History & Observations

Time (EST) Temp. Windchill Dew Point Humidity Pressure Visibility Wind Dir Wind Speed Gust Speed Precip Events Conditions
12:03 AM 30.2 °F 22.6 °F 24.8 °F 80% 30.12 in 7.0 mi SW 8.1 mph - 0.00 in Snow Light Snow
12:46 AM 30.2 °F 23.4 °F 24.8 °F 80% 30.10 in 9.0 mi SSW 6.9 mph - 0.00 in   Overcast
12:53 AM 30.0 °F 22.4 °F 25.0 °F 82% 30.14 in 8.0 mi SW 8.1 mph - 0.00 in   Overcast
1:31 AM 30.2 °F 22.6 °F 24.8 °F 80% 30.10 in 5.0 mi SSW 8.1 mph - 0.00 in Rain Light Freezing Rain
1:39 AM 30.2 °F 20.8 °F 24.8 °F 80% 30.10 in 6.0 mi SW 11.5 mph - 0.00 in Rain Light Freezing Rain
1:53 AM 30.0 °F 22.4 °F 25.0 °F 82% 30.13 in 7.0 mi SW 8.1 mph - 0.00 in   Overcast
2:09 AM 30.2 °F 22.6 °F 24.8 °F 80% 30.09 in 5.0 mi SW 8.1 mph - 0.00 in Snow Light Snow
2:53 AM 30.0 °F 22.4 °F 26.1 °F 85% 30.15 in 6.0 mi WSW 8.1 mph - 0.00 in   Overcast
3:33 AM 30.2 °F 22.6 °F 26.6 °F 86% 30.12 in 4.0 mi WSW 8.1 mph - N/A   Overcast
3:53 AM 30.2 °F 23.4 °F 26.6 °F 86% 30.12 in 5.0 mi SW 6.9 mph - N/A   Overcast
4:00 AM 30.2 °F 22.6 °F 26.6 °F 86% 30.12 in 5.0 mi WSW 8.1 mph - N/A   Overcast
4:51 AM 30.2 °F 23.4 °F 26.6 °F 86% 30.12 in 6.0 mi West 6.9 mph - N/A   Overcast
4:53 AM 30.9 °F 24.3 °F 27.0 °F 85% 30.16 in 6.0 mi West 6.9 mph - N/A   Overcast
5:10 AM 30.2 °F 23.4 °F 26.6 °F 86% 30.12 in 6.0 mi West 6.9 mph - N/A   Overcast
5:26 AM 30.2 °F 21.9 °F 26.6 °F 86% 30.12 in 7.0 mi West 9.2 mph - N/A   Overcast
5:53 AM 30.9 °F 22.2 °F 27.0 °F 85% 30.16 in 7.0 mi West 10.4 mph - N/A   Overcast
6:53 AM 30.2 °F 23.4 °F 24.8 °F 80% 30.13 in 10.0 mi WNW 6.9 mph - N/A   Overcast
7:53 AM 30.9 °F 26.2 °F 25.0 °F 79% 30.19 in 10.0 mi West 4.6 mph - N/A   Overcast
8:53 AM 30.9 °F 26.2 °F 24.1 °F 76% 30.20 in 9.0 mi WSW 4.6 mph - N/A   Overcast
9:45 AM 32.0 °F 28.7 °F 24.8 °F 75% 30.18 in 10.0 mi SW 3.5 mph - N/A   Overcast
9:53 AM 32.0 °F 28.7 °F 24.1 °F 73% 30.21 in 10.0 mi SW 3.5 mph - N/A   Overcast
10:53 AM 33.1 °F 25.5 °F 23.0 °F 66% 30.22 in 10.0 mi WSW 9.2 mph - N/A   Overcast
11:53 AM 33.1 °F 27.7 °F 24.1 °F 70% 30.21 in 10.0 mi SSW 5.8 mph - N/A   Overcast
12:53 PM 33.8 °F 25.8 °F 24.8 °F 70% 30.16 in 10.0 mi SW 10.4 mph - N/A   Overcast
1:22 PM 35.6 °F 29.2 °F 26.6 °F 70% 30.15 in 9.0 mi SW 8.1 mph - N/A   Overcast
1:53 PM 35.1 °F 28.6 °F 27.0 °F 72% 30.15 in 10.0 mi SW 8.1 mph - N/A   Overcast
2:17 PM 35.6 °F 28.0 °F 26.6 °F 70% 30.12 in 10.0 mi SW 10.4 mph - N/A   Scattered Clouds
2:53 PM 37.4 °F 29.3 °F 26.6 °F 65% 30.11 in 10.0 mi SW 12.7 mph - N/A   Mostly Cloudy
3:07 PM 37.4 °F 29.3 °F 26.6 °F 65% 30.11 in 10.0 mi SW 12.7 mph 19.6 mph N/A   Mostly Cloudy
3:15 PM 35.6 °F 27.5 °F 26.6 °F 70% 30.11 in 10.0 mi SW 11.5 mph - N/A   Scattered Clouds
3:51 PM 35.6 °F 27.5 °F 26.6 °F 70% 30.09 in 10.0 mi SSW 11.5 mph - N/A   Mostly Cloudy
3:53 PM 36.0 °F 28.0 °F 26.1 °F 67% 30.12 in 10.0 mi SSW 11.5 mph - N/A   Mostly Cloudy
4:53 PM 36.0 °F 29.6 °F 26.1 °F 67% 30.10 in 10.0 mi SSW 8.1 mph - N/A   Clear
5:53 PM 36.0 °F 29.6 °F 26.1 °F 67% 30.08 in 10.0 mi South 8.1 mph - N/A   Clear
6:53 PM 35.1 °F 27.4 °F 27.0 °F 72% 30.07 in 10.0 mi SSW 10.4 mph - N/A   Clear
7:53 PM 35.1 °F 27.9 °F 27.0 °F 72% 30.06 in 8.0 mi South 9.2 mph - N/A   Scattered Clouds
8:53 PM 35.1 °F 27.4 °F 27.0 °F 72% 30.03 in 8.0 mi SSW 10.4 mph 20.7 mph N/A   Overcast
9:53 PM 36.0 °F 27.5 °F 28.0 °F 73% 29.99 in 10.0 mi South 12.7 mph - N/A   Partly Cloudy
10:53 PM 37.0 °F 29.8 °F 28.9 °F 73% 29.96 in 10.0 mi SSW 10.4 mph 20.7 mph N/A   Clear
11:53 PM 37.0 °F 28.9 °F 28.9 °F 73% 29.93 in 10.0 mi SSW 12.7 mph 26.5 mph N/A   Clear